Location: *
(49.5667°N, 1.3667°W)
Time: 21:51:34
(UTC+00:00)

Cosmos 2227 Rocket - Pass Details

Date: 20 September 2019
Orbit: 837 x 847 km, 71.0° (Epoch: 15 October)

Event Time Altitude Azimuth Distance (km) Brightness Sun altitude
Rises 20:14:49 0° 206° (SSW) 3,384 5.3 -20.5°
Reaches altitude 10° 20:17:15 10° 207° (SSW) 2,455 4.6 -20.8°
Maximum altitude 20:22:54 90° 118° (ESE) 851 2.1 -21.6°
Drops below altitude 10° 20:28:36 10° 29° (NNE) 2,477 4.6 -22.4°
Sets 20:31:04 0° 29° (NNE) 3,417 5.4 -22.8°
